Change the Weather History Date:

Monday, December 26, 2011

  Actual Average (KHRO) Record (KHRO)
Temperature  
Mean Temperature 36 °F 36 °F  
Max Temperature 39 °F 46 °F 72 °F (1971)
Min Temperature 33 °F 27 °F -1 °F (1983)
Degree Days  
Heating Degree Days 29 29  
Month to date heating degree days 690  
Since 1 July heating degree days 1454  
Cooling Degree Days 0 0  
Month to date cooling degree days 0  
Year to date cooling degree days 1416  
Moisture  
Dew Point 33 °F    
Average Humidity 88    
Maximum Humidity 100    
Minimum Humidity 57    
Precipitation  
Precipitation 0.19 in 0.10 in 0.71 in (1987)
Month to date precipitation 2.75  
Year to date precipitation 43.69  
Snow  
Snow 0.00 in 0.10 in 6.00 in (1939)
Month to date snowfall 0.8  
Since 1 July snowfall 1.3  
Snow Depth -    
Sea Level Pressure  
Sea Level Pressure 30.05 in    
Wind  
Wind Speed 3 mph (East)    
Max Wind Speed 10 mph    
Max Gust Speed -    
Visibility 5 miles    
Events Rain    
T = Trace of Precipitation, MM = Missing Value Source: NWS Daily Summary

Daily Weather History Graph

Daily Weather History Graph

Search for Another Location

Airport or City:

Trip Planner

Search our weather history database for the weather conditions in past years. The results will help you decide how hot, cold, wet, or windy it might be!

Date:

Astronomy

Dec. 26, 2011 Rise Set
Actual Time 7:19 AM CST 5:01 PM CST
Civil Twilight 6:51 AM CST 5:29 PM CST
Nautical Twilight 6:18 AM CST 6:02 PM CST
Astronomical Twilight 5:47 AM CST 6:33 PM CST
Moon 8:43 AM CST (12/26) 7:26 PM CST (12/26)
Length of Visible Light 10h 38m
Length of Day
9h 41m
Waxing Crescent, 5% of the Moon is Illuminated
Dec 26
Waxing Crescent
Jan 1
First Quarter
Jan 9
Full
Jan 16
Last Quarter
Jan 23
New

Hourly Weather History & Observations

Time (CST) Temp. Windchill Dew Point Humidity Pressure Visibility Wind Dir Wind Speed Gust Speed Precip Events Conditions
12:53 AM 37.0 °F - 23.0 °F 57% 30.32 in 10.0 mi Calm Calm - N/A   Clear
1:53 AM 33.1 °F - 24.1 °F 70% 30.32 in 10.0 mi Calm Calm - N/A   Clear
2:53 AM 33.1 °F 30.0 °F 24.1 °F 70% 30.31 in 10.0 mi NE 3.5 mph - N/A   Clear
3:53 AM 35.1 °F 31.0 °F 24.1 °F 64% 30.29 in 10.0 mi ENE 4.6 mph - N/A   Clear
4:53 AM 34.0 °F 29.8 °F 24.1 °F 67% 30.28 in 10.0 mi ENE 4.6 mph - N/A   Clear
5:53 AM 36.0 °F 30.3 °F 26.1 °F 67% 30.27 in 10.0 mi East 6.9 mph - N/A   Mostly Cloudy
6:53 AM 36.0 °F 33.3 °F 26.1 °F 67% 30.28 in 10.0 mi East 3.5 mph - N/A   Scattered Clouds
7:53 AM 35.1 °F 30.1 °F 27.0 °F 72% 30.26 in 10.0 mi East 5.8 mph - N/A   Scattered Clouds
8:53 AM 37.9 °F 31.5 °F 28.0 °F 68% 30.25 in 10.0 mi East 9.2 mph - 0.00 in   Overcast
9:53 AM 39.0 °F 33.4 °F 28.9 °F 67% 30.25 in 10.0 mi East 8.1 mph - 0.00 in   Overcast
10:53 AM 39.0 °F 32.3 °F 28.9 °F 67% 30.21 in 10.0 mi East 10.4 mph - N/A   Overcast
11:53 AM 39.0 °F - 32.0 °F 76% 30.18 in 10.0 mi Calm Calm - 0.00 in   Overcast
12:53 PM 37.0 °F 34.5 °F 34.0 °F 89% 30.12 in 5.0 mi ENE 3.5 mph - 0.02 in Rain Rain
1:02 PM 35.6 °F - 35.6 °F 100% 30.15 in 2.0 mi Calm Calm - 0.00 in Rain Light Rain
1:12 PM 37.4 °F - 35.6 °F 93% 30.13 in 5.0 mi Calm Calm - N/A Rain Rain
1:53 PM 36.0 °F 30.3 °F 34.0 °F 93% 30.09 in 3.0 mi NE 6.9 mph - N/A Rain Rain
2:53 PM 36.0 °F 29.6 °F 35.1 °F 97% 30.07 in 3.0 mi ENE 8.1 mph - N/A Rain Heavy Rain
3:23 PM 35.6 °F 29.2 °F 35.6 °F 100% 30.03 in 4.0 mi East 8.1 mph - N/A Rain Rain
3:37 PM 35.6 °F 28.6 °F 35.6 °F 100% 30.03 in 4.0 mi East 9.2 mph - N/A Rain Rain
3:53 PM 36.0 °F 32.1 °F 35.1 °F 97% 30.04 in 4.0 mi East 4.6 mph - N/A Rain Rain
4:53 PM 36.0 °F 32.1 °F 36.0 °F 100% 30.01 in 5.0 mi ESE 4.6 mph - 0.03 in Rain Rain
5:53 PM 37.0 °F 31.6 °F 36.0 °F 96% 29.95 in 6.0 mi East 6.9 mph - N/A Rain Light Rain
6:53 PM 37.0 °F - 36.0 °F 96% 29.94 in 6.0 mi Calm Calm - 0.03 in Rain Rain
7:46 PM 37.4 °F - 35.6 °F 93% 29.98 in 4.0 mi Calm Calm - 0.03 in Rain Rain
7:53 PM 37.0 °F 34.5 °F 36.0 °F 96% 29.96 in 5.0 mi ESE 3.5 mph - 0.03 in Rain Light Rain
8:02 PM 37.4 °F - 35.6 °F 93% 29.94 in 5.0 mi Calm Calm - 0.00 in Rain Light Rain
8:31 PM 37.4 °F - 35.6 °F 93% 29.93 in 4.0 mi Calm Calm - 0.01 in Rain Light Rain
8:43 PM 37.4 °F - 35.6 °F 93% 29.92 in 1.8 mi Calm Calm - 0.02 in Rain Light Rain
8:53 PM 37.0 °F - 36.0 °F 96% 29.94 in 2.0 mi Calm Calm - 0.02 in Rain Light Rain
9:02 PM 37.4 °F - 35.6 °F 93% 29.93 in 3.0 mi Calm Calm - 0.01 in Rain Light Rain
9:13 PM 37.4 °F - 35.6 °F 93% 29.93 in 3.0 mi Calm Calm - 0.01 in Rain Light Rain
9:37 PM 37.4 °F - 35.6 °F 93% 29.92 in 2.5 mi Calm Calm - 0.02 in Rain Light Rain
9:53 PM 37.0 °F - 36.0 °F 96% 29.93 in 3.0 mi Calm Calm - 0.03 in Rain Light Rain
10:05 PM 37.4 °F - 35.6 °F 93% 29.89 in 2.5 mi Calm Calm - 0.00 in   Overcast
10:13 PM 37.4 °F - 35.6 °F 93% 29.89 in 2.0 mi Calm Calm - 0.00 in   Overcast
10:39 PM 35.6 °F 32.8 °F 35.6 °F 100% 29.87 in 2.5 mi NNW 3.5 mph - 0.01 in   Overcast
11:01 PM 35.6 °F - 35.6 °F 100% 29.88 in 3.0 mi Calm Calm - N/A   Overcast
11:13 PM 35.6 °F - 35.6 °F 100% 29.88 in 2.5 mi Calm Calm - 0.01 in   Overcast
11:39 PM 35.6 °F 32.8 °F 35.6 °F 100% 29.88 in 2.5 mi West 3.5 mph - 0.02 in Rain Rain
11:51 PM 35.6 °F - 35.6 °F 100% 29.89 in 1.8 mi Calm Calm - 0.03 in Rain Rain
11:52 PM 35.1 °F - 35.1 °F 100% 29.91 in 1.8 mi Calm Calm - 0.03 in Rain Rain